Regional Weather Roundup
Issued by NWS Jackson, KY

Home | Current Version | Previous Version | Graphics & Text | Print | Product List | Glossary On
Versions: 1 2 3 4 5 6 7 8 9 10 11 12 13 14 15 16 17 18 19 20 21 22 23 24 25 26 27 28 29 30 31 32 33 34 35 36 37 38 39 40 41 42 43 44 45 46 47 48 49 50
000
ASUS43 KJKL 311410
RWRJKL

EAST KENTUCKY HOURLY WEATHER ROUNDUP
NATIONAL WEATHER SERVICE JACKSON KY
1000 AM EDT MON AUG 31 2015

NOTE: "FAIR" INDICATES FEW OR NO CLOUDS BELOW 12,000 FEET WITH
NO SIGNIFICANT WEATHER AND/OR OBSTRUCTIONS TO VISIBILITY.

* THESE REPORTS ARE NOT UNDER NWS QUALITY CONTROL AND MAY NOT
  REPORT WEATHER SUCH AS PRECIPITATION AND FOG.

KYZ079-080-083-085-087-088-110-112-115-119-120-311500
...EASTERN KENTUCKY...

CITY           SKY/WX    TMP DP  RH WIND       PRES   REMARKS
JACKSON        CLOUDY    73  65  75 W3        30.19R
LONDON         SUNNY     74  63  68 VRB3      30.18R
SOMERSET*      CLOUDY    66  66 100 CALM      30.19R FOG
MONTICELLO*    SUNNY     75  69  81 CALM      30.20R
MIDDLESBORO*   SUNNY     69  64  83 CALM      30.18S
HAZARD APT*    MOSUNNY   73  66  78 CALM      30.18R
BLACK MTN*       N/A     66  61  82 N1          N/A
PIKEVILLE APT* SUNNY     72  66  83 SW3       30.19R
BIG SANDY*     SUNNY     72  68  86 CALM      30.18R
MOREHEAD APT*  SUNNY     75  64  69 VRB3      30.19R
$$

KYZ035-036-041-042-044-050-067-078-099-311500
...CENTRAL KENTUCKY...

CITY           SKY/WX    TMP DP  RH WIND       PRES   REMARKS
MT STERLING*   SUNNY     75  64  69 CALM      30.19R
FLEMING/MASON* CLOUDY    75  68  78 SW5       30.17S
DANVILLE*      MOSUNNY   73  63  68 CALM      30.19R
RICHMOND*      SUNNY     73  64  73 CALM      30.17R
LEXINGTON      MOSUNNY   77  64  64 W6        30.17R
FRANKFORT      MOSUNNY   74  65  73 SW6       30.16R
$$

KYZ091>093-OHZ055-061-077-WVZ005-015-034-035-042-311500
...SOUTHERN OHIO/WEST VIRGINIA...

CITY           SKY/WX    TMP DP  RH WIND       PRES   REMARKS
COVINGTON      MOSUNNY   76  67  73 W8        30.15R
COLUMBUS       MOSUNNY   74  68  81 CALM      30.13R
DAYTON         MOSUNNY   75  69  81 SW3       30.15R
WILMINGTON     SUNNY     76  68  76 W7        30.14R
HUNTINGTON     SUNNY     75  67  76 S3        30.15R
CHARLESTON     MOSUNNY   73  67  81 CALM      30.16R
PINEVILLE*     MOSUNNY   74  68  80 MISG      30.24R
BECKLEY        PTSUNNY   71  60  68 CALM      30.22R
BLUEFIELD      MOSUNNY   70  59  68 CALM      30.24R
$$

VAZ002-007-008-TNZ017-027-036-066-071-311500
...SOUTHWEST VIRGINIA/EAST TENNESSEE...

CITY           SKY/WX    TMP DP  RH WIND       PRES   REMARKS
WISE*          MOSUNNY   70  57  64 W3        30.24R
JONESVILLE*    SUNNY     73  55  53 CALM      30.20S
ABINGDON*      MOSUNNY   71  62  74 CALM      30.21R
BRISTOL        MOSUNNY   71  64  78 SE3       30.19R
KNOXVILLE      MOSUNNY   76  65  68 CALM      30.15S
OAK RIDGE      SUNNY     73  65  75 E5        30.17S
CROSSVILLE     SUNNY     74  61  63 CALM      30.20S
NASHVILLE      MOSUNNY   73  66  78 CALM      30.16R
$$

...KEY TO REMARKS...
VSB - VISIBILITY IN MILES
WCI - WIND CHILL INDEX
HX  - HEAT INDEX

$$


USA.gov is the U.S. government's official web portal to all federal, state and local government web resources and services.